Location: Battersea Observatory
(44.4318°N, 76.3841°W)
Time: 22:08:41
(UTC-04:00)

Tiros 1 despin weight - Pass Details

Date: 24 January 2022
Orbit: 592 x 639 km, 48.2° (Epoch: 25 May)

Event Time Altitude Azimuth Distance (km) Brightness Sun altitude
Rises 15:52:34 0° 196° (SSW) 2,852 ? 9.8°
Reaches altitude 10° 15:55:29 10° 177° (S) 1,963 ? 9.4°
Maximum altitude 15:58:27 17° 135° (SE) 1,549 ? 9.0°
Drops below altitude 10° 16:01:27 10° 94° (E) 1,992 ? 8.6°
Sets 16:04:26 0° 75° (ENE) 2,913 ? 8.2°
